sat.trackr.live / text

‹ back to catalog

CANX-4

NORAD 40055 · 2014-034C

PAYLOAD ACTIVE UNKNOWN

§ Identity

Operator
Country
CA
Launch date
2014-06-30
Launch site
SRILR
Launch vehicle
Mass (kg)
RCS (m²)
0.10

Purposes: tech_demo

External: N2YO · Heavens-Above · Gunter

§ Orbital elements

Epoch: 2026-05-25T02:48:11.754144Z

Period
97.22 min
Inclination
98.3152°
Eccentricity
0.0014140
Mean motion
14.81214024 rev/d
Perigee alt
615.6 km
Apogee alt
635.4 km
Semi-major
7,003.6 km
B*
1.0067e-4
RAAN
19.5801°
Arg perigee
85.6837°
Mean anomaly
274.5989°
Rev number
64,111

§ Raw data

CANX-41 40055U 14034C   26145.11680271  .00000727  00000+0  10067-3 0  99922 40055  98.3152  19.5801 0014140  85.6837 274.5989 14.81214024641119

JSON: /api/v1/satellites/40055 · /tle

For live sub-satellite position, see the globe view (requires WebGL).

§ Visibility from observer

Set your observer location to see the next 7 days of passes ≥ 10°. The values pass through the URL so the page stays shareable.

No JS? Fill the form by hand. The geolocation button needs JavaScript.

§ Radio — SatNOGS DB

ModeDescriptionDownlinkUplink
BPSK Telem 145.890 MHz
BPSK Telem 2.234 GHz

2 transmitters · refreshed weekly from db.satnogs.org